GSAT-10

Last updated on Jan. 20, 2021, 6:22 a.m. UTC

1 38779U 12051B   21019.93169355 -.00000160  00000-0  00000-0 0  9995
2 38779   0.0682  97.4162 0003367 173.6822 266.8464  1.00272171 30324
UTC
Height (km)
Latitude
Longitude
Inclination
Orbital Period
UTC large
Height (km)
Speed (km/s)
/
Latitude / Longitude
Inclination (degrees)
Orbital Period (minutes)
Azimuth
Elevation
Range (km)
Doppler Factor
iOS Compass Heading
iOS Angle

Next 30 passes for location: Hong Kong

Rise time Rise Azimuth (degrees) Set time Set Azimuth (degrees) Duration Max altitude (degrees)

No matching passes for this satellites